Regional Weather Roundup
Issued by NWS

Home | Current Version | Previous Version | Graphics & Text | Print | Product List | Glossary On
Versions: 1 2 3 4 5 6 7 8 9 10 11 12 13 14 15 16 17 18 19 20 21 22 23 24 25 26 27 28 29 30 31 32 33 34 35 36 37 38 39 40 41 42 43 44 45 46 47 48 49 50
000
ASUS45 KBOU 221607
RWRCO

WEATHER ROUNDUP FOR COLORADO
NATIONAL WEATHER SERVICE DENVER/BOULDER CO
1000 AM MDT WED MAR 22 2017

NOTE: "FAIR" INDICATES FEW OR NO CLOUDS BELOW 12000 FEET WITH NO
SIGNIFICANT WEATHER AND/OR OBSTRUCTIONS TO VISIBILITY.

COZ001>005-013-030-031-221700-
...NORTHWEST COLORADO...

CITY           SKY/WX    TMP DP  RH WIND       PRES   REMARKS
CRAIG          CLOUDY    53  31  42 VRB3      30.01R
HAYDEN         FAIR      54  28  37 E5        30.03R
MEEKER         CLOUDY    57  28  33 S5        30.02S
MOUNT WERNER   NOT AVBL
STEAMBOAT SPGS PTSUNNY   45  32  60 NW6       30.04S
WALDEN         NOT AVBL
$$

COZ006>008-011-221700-
...WEST CENTRAL VALLEYS...

CITY           SKY/WX    TMP DP  RH WIND       PRES   REMARKS
GRAND JUNCTION PTSUNNY   63  30  28 CALM      29.98R
MONTROSE       FAIR      56  26  31 CALM      30.05S
EAGLE          MOSUNNY   46  30  53 CALM      30.10F
RIFLE          FAIR      51  35  54 CALM      30.02S
DELTA          FAIR      58  31  35 E10       30.04R
NUCLA          FAIR      59  25  27 SW6       30.10S
$$

COZ017>023-064>068-221700-
...SOUTHWEST COLORADO...

CITY           SKY/WX    TMP DP  RH WIND       PRES   REMARKS
DURANGO        FAIR      47  30  51 NE3       30.18R
CORTEZ         FAIR      60  29  30 SE14      30.10R
PAGOSA SPRINGS FAIR      50  24  36 CALM      30.23R
TELLURIDE      FAIR      52  19  27 SE5       30.22S
WOLF CREEK PAS CLOUDY    34  21  60 S17G24    30.40S WCI  23
$$

COZ009-010-012-014-032>034-037-058>063-221700-
...CENTRAL COLORADO...

CITY           SKY/WX    TMP DP  RH WIND       PRES   REMARKS
ASPEN          FAIR      59  14  17 SW14G22   30.10R
BUENA VISTA    FAIR      48  29  49 CALM      30.17S
COPPER MTN     FAIR      41  19  42 S16       30.30S
BERTHOUD PASS  FAIR      32  23  69 W20G36    30.30S WCI  20
COTTONWOOD PAS CLOUDY    48  23  37 CALM      30.23S
GUNNISON       FAIR      38  31  76 SE3       30.20S
KREMMLING      FAIR      50  30  46 CALM      30.12S
LEADVILLE      FAIR      42  21  43 S9        30.21S
MONARCH PASS   PTSUNNY   36  19  51 SW22G29   30.43S
SALIDA         FAIR      57  25  28 S16G23    30.22F
SUNLIGHT       NOT AVBL
WILKERSON PASS FAIR      39  21  48 SW14G23   30.29R
$$

COZ069>075-221700-
...SAN LUIS VALLEY/SANGRE DE CRISTO MOUNTAINS...

CITY           SKY/WX    TMP DP  RH WIND       PRES   REMARKS
ALAMOSA        FAIR      56  30  37 S6        30.17F
LA VETA PASS   NOT AVBL
SAGUACHE       FAIR      52  27  37 SE8       30.19F
$$

COZ035-036-038>040-221700-
...NORTHERN COLORADO FRONT RANGE...

CITY           SKY/WX    TMP DP  RH WIND       PRES   REMARKS
DENVER INTL AP PTSUNNY   45  33  63 NW3       30.02F
DMNS CITY PARK   N/A     47  33  58 E5        30.01S
AURORA         PTSUNNY   46  32  57 CALM      30.02F
FRONT RANGE AP PTSUNNY   46  36  66 CALM      30.03F
ERIE MUNI ARPT FAIR      43  32  65 N5        30.02F
BOULDER MUN AP FAIR      43  32  65 CALM      30.03S
CENTENNIAL     PTSUNNY   53  32  44 CALM      30.01F
BROOMFIELD     PTSUNNY   43  32  65 VRB5      30.02F
FORT COLLINS   FAIR      42  30  62 N6        30.04S
LONGMONT       FAIR      46  33  60 NE3       30.05S
$$

COZ041-046-047-076>085-087-088-221700-
...PIKES PEAK/PALMER DIVIDE AND SOUTHERN FOOTHILLS...

CITY           SKY/WX    TMP DP  RH WIND       PRES   REMARKS
COLO. SPRINGS  FAIR      42  31  64 VRB3      30.11S
A. F. ACADEMY  FAIR      43  30  61 S6        30.10F
SCHRIEVER AFB  FAIR      41  32  70 S6        30.11F
ELLICOTT         N/A    N/A N/A N/A SE6       30.09F
FALCON         FAIR      42  31  65 CALM      30.12S
FORT CARSON    FAIR      42  30  62 CALM      30.10F
LIMON          PTSUNNY   43  35  73 S23       30.10F
MONUMENT HILL  FAIR      52  32  46 S10       30.09S
TRINIDAD       FAIR      50  35  56 E8        30.10F
$$

COZ042>045-048>051-090-091-221700-
...NORTHEAST COLORADO...

CITY           SKY/WX    TMP DP  RH WIND       PRES   REMARKS
GREELEY ARPT   FAIR      42  33  70 W3        30.04S
AKRON          FAIR      47  31  53 S18G26    30.07S
BURLINGTON     CLOUDY    44  34  67 S21       30.14F
WRAY           CLOUDY    45  32  61 S18G25    30.14F
STERLING       FAIR      48  32  53 S22       30.06F
HOLYOKE        PTSUNNY   46  34  61 S25G31    30.12F
FORT MORGAN    FAIR      48  31  52 S14G21    30.05F
$$

COZ086-089-092>099-221700-
...SOUTHEAST COLORADO...

CITY           SKY/WX    TMP DP  RH WIND       PRES   REMARKS
PUEBLO         FAIR      47  31  53 NE6       30.11F
LA JUNTA       FAIR      47  33  58 SW7       30.12F
LAMAR          PTSUNNY   50  36  58 S17G26    30.13F
SPRINGFIELD      N/A     44  35  70 S18       30.17F
$$



USA.gov is the U.S. government's official web portal to all federal, state and local government web resources and services.